{"data":{"norad_id":58734,"intl_designator":"2024-005G","name":"STARLINK-31152","alt_names":[],"object_type":"PAYLOAD","status":"ACTIVE","operator":null,"country":"US","launch_date":"2024-01-07","launch_site_code":"AFETR","launch_vehicle":null,"mission":null,"orbit_class":"UNKNOWN","rcs_meters":null,"size_class":null,"mass_kg":null,"dimensions":null,"purposes":["comms"],"wikipedia_slug":null,"has_3d_model":false,"image_url":null,"decayed_at":null,"tle_current":{"epoch":"2026-09-20T12:26:25.409760Z","epoch_age_seconds":148157,"freshness":"FRESH","line1":"1 58734U 24005G   26263.51834965  .00000825  00000+0  39481-4 0  9991","line2":"2 58734  42.9991 199.1672 0001110 269.6336  90.4388 15.27592194150245","mean_motion":15.27592194,"eccentricity":0.000111,"inclination_deg":42.9991,"raan_deg":199.1672,"arg_perigee_deg":269.6336,"mean_anomaly_deg":90.4388,"bstar":3.9481e-5,"rev_number":15024,"period_min":94.265996229619,"perigee_km":482.25099545605,"apogee_km":483.77417066349,"semimajor_km":6861.1495830598,"source":"CELESTRAK","updated_at":"2026-09-21T09:00:33.952330Z"}}}